FW0850 Weather Reports


time (UTC)temp
F
wind
direction
speed
knots
gust
knots
rain 1hr
in
rain 24hr
in
rain mn
in
humidity
%
barometer
mb
20260503004543 50 60 2.6 5.2 0.00 0.00 0.00 59 1009.4
20260503003046 50 320 0.0 2.6 0.00 0.00 0.00 57 1009.6
20260503001542 52 44 0.0 3.5 0.00 0.00 0.00 54 1009.7
20260503000046 55 19 0.9 5.2 0.00 0.00 0.00 49 1009.7
20260502234549 63 203 1.7 5.2 0.00 0.00 0.00 42 1009.8
20260502233033 63 167 4.3 5.2 0.00 0.00 0.00 41 1009.8
20260502231533 62 224 6.1 9.6 0.00 0.00 0.00 42 1010.1
20260502230030 63 200 6.1 12.2 0.00 0.00 0.00 42 1010.1
20260502224602 65 179 6.1 15.6 0.00 0.00 0.00 37 1010.3
20260502223104 66 186 7.0 13.0 0.00 0.00 0.00 36 1010.5
20260502221524 65 169 1.7 15.6 0.00 0.00 0.00 37 1010.8
20260502220020 59 205 2.6 7.8 0.00 0.00 0.00 41 1010.9
20260502214517 57 61 0.9 4.3 0.00 0.00 0.00 42 1010.9
20260502213015 58 53 0.0 5.2 0.00 0.00 0.00 41 1011.3
20260502211513 59 83 1.7 4.3 0.00 0.00 0.00 40 1011.5
20260502210011 58 56 3.5 7.0 0.00 0.00 0.00 40 1011.9
20260502204541 59 58 2.6 5.2 0.00 0.00 0.00 38 1012.1
20260502203103 59 356 0.9 5.2 0.00 0.00 0.00 38 1012.4
20260502201506 58 60 5.2 7.8 0.00 0.00 0.00 38 1012.7
20260502200003 59 76 1.7 5.2 0.00 0.00 0.00 36 1013.0
20260502194556 56 70 2.6 6.1 0.00 0.00 0.00 41 1013.7
20260502193054 57 13 0.9 5.2 0.00 0.00 0.00 39 1013.8
20260502191559 56 64 1.7 6.1 0.00 0.00 0.00 41 1014.1
20260502190049 55 75 1.7 5.2 0.00 0.00 0.00 41 1014.4
20260502184547 56 70 1.7 5.2 0.00 0.00 0.00 42 1014.7
20260502184545 56 74 1.7 5.2 0.00 0.00 0.00 42 1014.7
20260502183013 55 116 1.7 4.3 0.00 0.00 0.00 44 1015.0
20260502181510 53 63 0.9 4.3 0.00 0.00 0.00 48 1015.3
20260502163102 49 87 1.7 5.2 0.00 0.00 0.00 54 1017.3
20260502161558 49 100 1.7 5.2 0.00 0.00 0.00 56 1017.5
20260502151527 46 83 0.9 5.2 0.00 0.00 0.00 63 1018.4
20260502130108 37 105 0.9 2.6 0.00 0.00 0.00 77 1019.5
20260502123117 38 146 0.0 1.7 0.00 0.00 0.00 75 1019.5
20260502121609 38 188 0.0 1.7 0.00 0.00 0.00 74 1019.6
20260502114502 39 311 0.0 0.0 0.00 0.00 0.00 72 1019.8
20260502113133 35 311 0.0 0.9 0.00 0.00 0.00 74 1019.7
20260502111559 34 311 0.0 0.9 0.00 0.00 0.00 76 1019.6
20260502110028 33 311 0.0 0.9 0.00 0.00 0.00 75 1019.7
20260502104532 33 311 0.0 1.7 0.00 0.00 0.00 77 1019.7
20260502103057 32 318 0.0 0.9 0.00 0.00 0.00 78 1019.6
20260502101604 32 318 0.9 0.9 0.00 0.00 0.00 76 1019.6
20260502071532 34 319 0.9 1.7 0.00 0.00 0.00 72 1020.2
20260502070001 34 307 0.0 1.7 0.00 0.00 0.00 72 1020.2
20260502064559 35 307 0.9 1.7 0.00 0.00 0.00 71 1020.3
20260502063055 35 307 0.9 1.7 0.00 0.00 0.00 70 1020.3
20260502061554 35 307 0.0 1.7 0.00 0.00 0.00 70 1020.5
20260502060054 36 314 0.9 3.5 0.00 0.00 0.00 69 1020.4
20260502054550 36 314 1.7 3.5 0.00 0.00 0.00 69 1020.4
20260502053040 36 308 1.7 3.5 0.00 0.00 0.00 69 1020.5
20260502051537 36 291 0.9 0.0 0.00 0.00 0.00 70 1020.4
20260502050039 36 268 0.9 1.7 0.00 0.00 0.00 71 1020.5
20260502044530 36 267 0.0 0.9 0.00 0.00 0.00 69 1020.6
20260502043032 37 266 0.0 1.7 0.00 0.00 0.00 69 1020.6
20260502041527 37 139 0.0 0.9 0.00 0.00 0.00 68 1020.6
20260502040027 37 139 0.0 0.9 0.00 0.00 0.00 68 1020.6
20260502034527 38 139 0.0 0.0 0.00 0.00 0.00 68 1020.7
20260502033125 38 139 0.0 0.0 0.00 0.00 0.00 69 1020.7
20260502031555 39 139 0.0 0.9 0.00 0.00 0.00 72 1020.7
20260502030054 40 124 0.0 0.9 0.00 0.00 0.00 62 1020.7
20260502024550 40 317 0.9 1.7 0.00 0.00 0.00 61 1020.8
20260502023049 40 358 0.0 0.9 0.00 0.00 0.00 61 1020.6
20260502021548 41 359 0.9 0.9 0.00 0.00 0.00 61 1020.5
20260502020048 41 360 0.0 0.9 0.00 0.00 0.00 59 1020.4
20260502014544 42 360 0.0 0.9 0.00 0.00 0.00 58 1020.4
20260502013044 42 360 0.0 0.9 0.00 0.00 0.00 57 1020.4
20260502011543 43 360 0.0 0.9 0.00 0.00 0.00 57 1020.1
20260502010042 43 360 0.0 0.9 0.00 0.00 0.00 55 1020.2